EN

Hourly Weather Wittmund

Today, 30 November, Monday

Time Temperature Precipitation Wind Pressure Humidity
00:00 +1°C° 0 mm 1 mps 770 mmHg 87%
01:00 -1°C° 0 mm 2 mps 770 mmHg 89%
02:00 -1°C° 0 mm 2 mps 769 mmHg 90%
03:00 -1°C° 0 mm 2 mps 769 mmHg 91%
04:00 -1°C° 0 mm 3 mps 768 mmHg 92%
05:00 -1°C° 0 mm 3 mps 768 mmHg 92%
06:00 -1°C° 0 mm 3 mps 768 mmHg 92%
07:00 -1°C° 0 mm 3 mps 768 mmHg 94%
08:00 -2°C° 0 mm 4 mps 768 mmHg 90%
09:00 -1°C° 0 mm 4 mps 767 mmHg 87%
10:00 -1°C° 0 mm 5 mps 767 mmHg 84%
11:00 0°C° 0 mm 5 mps 766 mmHg 82%
12:00 0°C° 0 mm 5 mps 765 mmHg 80%
13:00 -1°C° 0 mm 6 mps 764 mmHg 78%
14:00 -1°C° 0.1 mm 6 mps 763 mmHg 79%
15:00 -1°C° 0.1 mm 7 mps 763 mmHg 80%
16:00 -1°C° 0.1 mm 7 mps 762 mmHg 80%
17:00 -1°C° 0.4 mm 7 mps 761 mmHg 85%
18:00 -1°C° 0.4 mm 7 mps 760 mmHg 89%
19:00 -1°C° 0.4 mm 7 mps 759 mmHg 93%
20:00 0°C° 0.5 mm 7 mps 758 mmHg 94%
21:00 +2°C° 0.5 mm 7 mps 757 mmHg 95%
22:00 +2°C° 0.5 mm 8 mps 757 mmHg 96%
23:00 +3°C° 0.6 mm 7 mps 756 mmHg 96%

Tomorrow, 1 December, Tuesday

Time Temperature Precipitation Wind Pressure Humidity
00:00 +4°C° 0.6 mm 6 mps 756 mmHg 96%
01:00 +4°C° 0.6 mm 6 mps 755 mmHg 96%
02:00 +5°C° 0.2 mm 5 mps 755 mmHg 95%
03:00 +5°C° 0.2 mm 4 mps 755 mmHg 93%
04:00 +5°C° 0.2 mm 3 mps 755 mmHg 92%
05:00 +5°C° 0 mm 2 mps 756 mmHg 92%
06:00 +5°C° 0 mm 2 mps 756 mmHg 92%
07:00 +4°C° 0 mm 2 mps 756 mmHg 92%
08:00 +5°C° 0 mm 2 mps 757 mmHg 92%
09:00 +6°C° 0 mm 1 mps 758 mmHg 92%
10:00 +6°C° 0 mm 1 mps 759 mmHg 92%
11:00 +6°C° 0.1 mm 2 mps 759 mmHg 91%
12:00 +5°C° 0.1 mm 3 mps 760 mmHg 90%
13:00 +6°C° 0.1 mm 4 mps 761 mmHg 89%
14:00 +6°C° 0 mm 4 mps 761 mmHg 91%
15:00 +5°C° 0 mm 4 mps 762 mmHg 93%
16:00 +5°C° 0 mm 5 mps 762 mmHg 95%
17:00 +5°C° 0 mm 4 mps 763 mmHg 94%
18:00 +5°C° 0 mm 4 mps 763 mmHg 94%
19:00 +4°C° 0 mm 4 mps 764 mmHg 93%
20:00 +4°C° 0 mm 4 mps 764 mmHg 93%
21:00 +4°C° 0 mm 4 mps 765 mmHg 93%
22:00 +4°C° 0 mm 4 mps 765 mmHg 93%
23:00 +4°C° 0 mm 3 mps 765 mmHg 93%

Day after tomorrow, 2 December, Wednesday

Time Temperature Precipitation Wind Pressure Humidity
00:00 +4°C° 0 mm 3 mps 765 mmHg 92%
01:00 +4°C° 0 mm 3 mps 766 mmHg 92%
02:00 +4°C° 0 mm 3 mps 765 mmHg 92%
03:00 +4°C° 0 mm 3 mps 765 mmHg 93%
04:00 +3°C° 0 mm 3 mps 765 mmHg 93%
05:00 +3°C° 0 mm 3 mps 765 mmHg 93%
06:00 +2°C° 0 mm 3 mps 765 mmHg 94%
07:00 +2°C° 0 mm 3 mps 764 mmHg 94%
08:00 +2°C° 0 mm 3 mps 764 mmHg 94%
09:00 +2°C° 0 mm 3 mps 764 mmHg 94%
10:00 +1°C° 0 mm 3 mps 764 mmHg 94%
11:00 +2°C° 0 mm 3 mps 763 mmHg 94%
12:00 +2°C° 0 mm 3 mps 763 mmHg 93%
13:00 +3°C° 0 mm 3 mps 762 mmHg 92%
14:00 +3°C° 0 mm 3 mps 762 mmHg 93%
15:00 +4°C° 0 mm 2 mps 761 mmHg 93%
16:00 +3°C° 0 mm 2 mps 760 mmHg 93%
17:00 +3°C° 0 mm 2 mps 760 mmHg 94%
18:00 +3°C° 0 mm 2 mps 760 mmHg 94%
19:00 +2°C° 0 mm 3 mps 760 mmHg 94%
20:00 +2°C° 0 mm 3 mps 759 mmHg 93%
21:00 +2°C° 0 mm 3 mps 759 mmHg 93%
22:00 +1°C° 0 mm 4 mps 758 mmHg 92%
23:00 +1°C° 0 mm 4 mps 758 mmHg 92%

3 December, Thursday

Time Temperature Precipitation Wind Pressure Humidity
00:00 +1°C° 0 mm 4 mps 757 mmHg 92%
01:00 +1°C° 0 mm 4 mps 757 mmHg 92%
02:00 +1°C° 0 mm 4 mps 756 mmHg 93%
03:00 +1°C° 0 mm 4 mps 755 mmHg 94%
04:00 0°C° 0 mm 4 mps 755 mmHg 95%
05:00 0°C° 0 mm 4 mps 754 mmHg 95%
06:00 0°C° 0 mm 5 mps 753 mmHg 96%
07:00 0°C° 0 mm 5 mps 753 mmHg 96%
08:00 0°C° 0 mm 5 mps 753 mmHg 95%
09:00 +1°C° 0 mm 5 mps 752 mmHg 94%
10:00 +1°C° 0 mm 5 mps 752 mmHg 94%
11:00 +1°C° 0.1 mm 5 mps 751 mmHg 93%
12:00 +2°C° 0.1 mm 5 mps 751 mmHg 93%
13:00 +2°C° 0.1 mm 5 mps 750 mmHg 93%
14:00 +2°C° 0.1 mm 5 mps 750 mmHg 93%
15:00 +2°C° 0.1 mm 5 mps 749 mmHg 93%
16:00 +2°C° 0.1 mm 5 mps 748 mmHg 93%
17:00 +2°C° 0.2 mm 6 mps 748 mmHg 93%
18:00 +2°C° 0.2 mm 6 mps 748 mmHg 92%
19:00 +2°C° 0.2 mm 6 mps 747 mmHg 92%
20:00 +2°C° 0.1 mm 6 mps 747 mmHg 92%
21:00 +2°C° 0.1 mm 6 mps 747 mmHg 92%
22:00 +2°C° 0.1 mm 6 mps 746 mmHg 91%
23:00 +2°C° 0 mm 6 mps 746 mmHg 91%

4 December, Friday

Time Temperature Precipitation Wind Pressure Humidity
00:00 +2°C° 0 mm 6 mps 745 mmHg 91%
01:00 +2°C° 0 mm 6 mps 744 mmHg 90%
02:00 +1°C° 0 mm 6 mps 744 mmHg 90%
03:00 +1°C° 0 mm 6 mps 744 mmHg 89%
04:00 -1°C° 0 mm 6 mps 743 mmHg 89%
05:00 -1°C° 0 mm 6 mps 743 mmHg 88%
06:00 -1°C° 0 mm 6 mps 743 mmHg 87%
07:00 -2°C° 0 mm 6 mps 742 mmHg 86%
08:00 -2°C° 0 mm 6 mps 742 mmHg 85%
09:00 -2°C° 0 mm 7 mps 742 mmHg 84%
10:00 -2°C° 0 mm 7 mps 742 mmHg 83%
11:00 -2°C° 0 mm 7 mps 741 mmHg 81%
12:00 -1°C° 0 mm 7 mps 741 mmHg 80%
13:00 -1°C° 0 mm 6 mps 741 mmHg 78%
14:00 -1°C° 0 mm 6 mps 741 mmHg 79%
15:00 -1°C° 0 mm 6 mps 740 mmHg 79%
16:00 -1°C° 0 mm 6 mps 740 mmHg 80%
17:00 -2°C° 0 mm 6 mps 740 mmHg 81%
18:00 -1°C° 0 mm 5 mps 740 mmHg 82%
19:00 -1°C° 0 mm 5 mps 740 mmHg 83%
20:00 -1°C° 0 mm 5 mps 740 mmHg 83%
21:00 -1°C° 0 mm 5 mps 740 mmHg 83%
22:00 -1°C° 0 mm 5 mps 740 mmHg 83%
23:00 -1°C° 0 mm 5 mps 740 mmHg 84%

5 December, Saturday

Time Temperature Precipitation Wind Pressure Humidity
00:00 -1°C° 0 mm 5 mps 740 mmHg 84%
01:00 -1°C° 0 mm 5 mps 740 mmHg 85%
02:00 -1°C° 0 mm 5 mps 740 mmHg 87%
03:00 -1°C° 0 mm 5 mps 740 mmHg 88%
04:00 -1°C° 0 mm 5 mps 741 mmHg 90%
05:00 -1°C° 0 mm 5 mps 741 mmHg 90%
06:00 -1°C° 0 mm 4 mps 741 mmHg 90%
07:00 -1°C° 0 mm 4 mps 741 mmHg 90%
08:00 -1°C° 0 mm 4 mps 742 mmHg 88%
09:00 0°C° 0 mm 4 mps 742 mmHg 87%
10:00 +1°C° 0 mm 3 mps 743 mmHg 85%
11:00 +2°C° 0 mm 3 mps 743 mmHg 84%
12:00 +3°C° 0 mm 2 mps 743 mmHg 83%
13:00 +4°C° 0 mm 2 mps 743 mmHg 82%
14:00 +4°C° 0.2 mm 2 mps 743 mmHg 85%
15:00 +2°C° 0.2 mm 3 mps 743 mmHg 89%
16:00 +1°C° 0.2 mm 4 mps 743 mmHg 92%
17:00 +2°C° 1.4 mm 3 mps 743 mmHg 94%
18:00 +2°C° 1.4 mm 3 mps 742 mmHg 96%
19:00 +3°C° 1.4 mm 2 mps 742 mmHg 97%
20:00 +2°C° 0.5 mm 3 mps 742 mmHg 97%
21:00 +1°C° 0.5 mm 4 mps 742 mmHg 97%
22:00 +1°C° 0.5 mm 5 mps 742 mmHg 96%
23:00 0°C° 0.1 mm 5 mps 741 mmHg 95%
Show more

We Need Your Consent

Meteoprog and our Service Providers may store and access personal data such as cookies, device identifiers or other similar technologies on your device and process such data to personalise content and ads, as well as provide social media features and to analyse the traffic.

  • Store and/or access information on your device

    Cookies, device identifiers or other information can be stored or accessed on your device for the purposes indicated above.

  • Personalised ads and content, ad and content measurement, audience insights, and products development

    Ads and content can be personalised based on a profile. More data can be added to better personalise ads and content. Ad and content performance can be measured. Insights about the audience who saw the ads and content can be derived. Such data can be used to develop or improve user’s experience, systems and software.

By clicking ‘I Agree’ you will allow the use of indicated cookies, device identifiers, web beacons or other similar technologies. Your settings can be changed in the browser on your device.

For certain purposes, legitimate interests may be relied on, rather than consent. You can read more about this in our Privacy and Cookie Policy.